W6TKD-13 Weather Reports


Display with metric or nautical units.
time (UTC)temp
F
wind
direction
speed
MPH
gust
MPH
rain 1hr
in
rain 24hr
in
rain mn
in
humidity
%
barometer
mb
20260506091129 54 315 0.0 0.0 0.00 0.00 0.00 74 1018.7
20260506090022 54 315 0.0 0.0 0.00 0.00 0.00 74 1018.8
20260506084915 54 315 0.0 0.0 0.00 0.00 0.00 74 1018.8
20260506083808 54 315 0.0 0.0 0.00 0.00 0.00 74 1018.7
20260506082701 54 270 0.0 0.0 0.00 0.00 0.00 74 1018.7
20260506081554 54 315 0.0 0.0 0.00 0.00 0.00 74 1018.7
20260506080447 54 315 0.0 0.0 0.00 0.00 0.00 74 1018.8
20260506073126 54 225 0.0 0.0 0.00 0.00 0.00 74 1018.6
20260506072021 54 225 0.0 1.0 0.00 0.00 0.00 74 1018.5
20260506070912 54 315 0.0 0.0 0.00 0.00 0.00 74 1018.4
20260506062444 54 225 0.0 0.0 0.00 0.00 0.00 74 1018.2
20260506061337 54 225 0.0 0.0 0.00 0.00 0.00 74 1018.0
20260506060230 54 270 0.0 0.0 0.00 0.00 0.00 74 1017.9
20260506050655 55 270 0.0 0.0 0.00 0.00 0.00 74 1017.4
20260506044442 55 315 0.0 0.0 0.00 0.00 0.00 74 1017.3
20260506043334 55 270 0.0 0.0 0.00 0.00 0.00 74 1017.2
20260506034907 55 225 0.0 0.0 0.00 0.00 0.00 74 1016.7
20260506033800 55 225 0.0 0.0 0.00 0.00 0.00 74 1016.7
20260506032652 56 225 0.0 1.0 0.00 0.00 0.00 74 1016.6
20260506031545 56 191 0.0 0.0 0.00 0.00 0.00 74 1016.5
20260506030438 56 315 0.0 0.0 0.00 0.00 0.00 74 1016.4
20260506025331 56 315 0.0 0.0 0.00 0.00 0.00 74 1016.0
20260506024225 57 315 0.0 0.0 0.00 0.00 0.00 74 1016.1
20260506023117 57 315 0.0 0.0 0.00 0.00 0.00 74 1015.9
20260506022010 57 315 0.0 0.0 0.00 0.00 0.00 74 1015.8
20260506020904 57 315 0.0 0.0 0.00 0.00 0.00 74 1015.8
20260506015758 58 273 0.0 0.0 0.00 0.00 0.00 74 1015.6
20260506014649 58 315 0.0 0.0 0.00 0.00 0.00 74 1015.8
20260506013542 58 315 0.0 1.0 0.00 0.00 0.00 74 1015.9
20260506012435 58 315 0.0 0.0 0.00 0.00 0.00 75 1016.1
20260506011328 58 315 0.0 0.0 0.00 0.00 0.00 75 1016.0
20260506010221 58 315 0.0 0.0 0.00 0.00 0.00 75 1015.8
20260506005115 58 315 0.0 0.0 0.00 0.00 0.00 75 1015.7
20260506004008 58 315 0.0 0.0 0.00 0.00 0.00 75 1015.7
20260506002900 58 315 0.0 0.0 0.00 0.00 0.00 75 1015.6
20260506001753 58 315 0.0 0.0 0.00 0.00 0.00 75 1015.5
20260506000646 58 315 0.0 0.0 0.00 0.00 0.00 75 1015.5
20260505235539 58 315 0.0 0.0 0.00 0.00 0.00 75 1015.5
20260505234432 57 315 0.0 0.0 0.00 0.00 0.00 75 1015.4
20260505233325 57 315 0.0 0.0 0.00 0.00 0.00 75 1015.4
20260505231111 57 315 0.0 0.0 0.00 0.00 0.00 75 1015.4
20260505224857 58 270 0.0 0.0 0.00 0.00 0.00 75 1015.4
20260505223750 58 315 0.0 0.0 0.00 0.00 0.00 75 1015.4
20260505222643 58 270 0.0 1.0 0.00 0.00 0.00 75 1015.5
20260505221536 58 270 0.0 0.0 0.00 0.00 0.00 75 1015.6
20260505220429 58 315 0.0 0.0 0.00 0.00 0.00 75 1015.6
20260505214215 58 270 0.0 0.0 0.00 0.00 0.00 75 1015.7
20260505213109 58 270 0.0 1.0 0.00 0.00 0.00 75 1015.6
20260505212001 58 0 0.0 1.0 0.00 0.00 0.00 75 1015.7
20260505210854 58 315 0.0 0.0 0.00 0.00 0.00 75 1015.7
20260505205750 58 0 0.0 1.0 0.00 0.00 0.00 75 1015.6
20260505204640 58 315 0.0 0.0 0.00 0.00 0.00 75 1015.6
20260505203533 58 270 0.0 0.0 0.00 0.00 0.00 75 1015.6
20260505202426 58 315 0.0 0.0 0.00 0.00 0.00 75 1015.4
20260505201319 58 292 0.0 0.0 0.00 0.00 0.00 75 1015.4
20260505200212 58 355 0.0 0.0 0.00 0.00 0.00 75 1015.4
20260505195105 58 315 0.0 0.0 0.00 0.00 0.00 75 1015.5
20260505193958 58 270 0.0 0.0 0.00 0.00 0.00 75 1015.5
20260505192851 58 315 0.0 0.0 0.00 0.00 0.00 75 1015.5
20260505191744 59 315 0.0 0.0 0.00 0.00 0.00 75 1015.5
20260505190637 59 270 0.0 0.0 0.00 0.00 0.00 75 1015.4
20260505185530 59 315 0.0 0.0 0.00 0.00 0.00 75 1015.3
20260505183316 59 335 0.0 0.0 0.00 0.00 0.00 75 1015.3
20260505182209 59 135 0.0 0.0 0.00 0.00 0.00 75 1015.2
20260505181102 59 315 0.0 0.0 0.00 0.00 0.00 76 1015.2
20260505175955 58 328 0.0 1.0 0.00 0.00 0.00 76 1015.1
20260505174848 58 315 0.0 1.0 0.00 0.00 0.00 76 1015.0
20260505173741 58 315 0.0 1.0 0.00 0.00 0.00 75 1015.0
20260505172634 58 315 0.0 1.0 0.00 0.00 0.00 75 1014.9
20260505171527 58 228 0.0 1.0 0.00 0.00 0.00 75 1014.8
20260505170420 59 270 0.0 0.0 0.00 0.00 0.00 75 1014.9
20260505165313 59 343 0.0 0.0 0.00 0.00 0.00 75 1014.9
20260505164206 59 315 0.0 0.0 0.00 0.00 0.00 75 1014.9
20260505163059 60 0 1.0 1.0 0.00 0.00 0.00 75 1014.8
20260505161952 60 315 0.0 0.0 0.00 0.00 0.00 76 1014.7
20260505160846 60 270 0.0 0.0 0.00 0.00 0.00 78 1014.7
20260505152417 53 315 0.0 0.0 0.00 0.00 0.00 78 1014.8
20260505151310 52 315 0.0 0.0 0.00 0.00 0.00 78 1014.6
20260505140628 50 315 0.0 0.0 0.00 0.00 0.00 77 1014.3
20260505123732 49 315 0.0 0.0 0.00 0.00 0.00 77 1014.2
20260505122625 49 315 0.0 0.0 0.00 0.00 0.00 77 1014.0
20260505121518 49 315 0.0 0.0 0.00 0.00 0.00 77 1014.0
20260505120411 49 315 0.0 0.0 0.00 0.00 0.00 77 1013.9
20260505115305 49 270 0.0 0.0 0.00 0.00 0.00 77 1013.9
20260505114157 49 270 0.0 0.0 0.00 0.00 0.00 77 1014.0
20260505113050 49 270 0.0 0.0 0.00 0.00 0.00 77 1014.0
20260505111943 49 270 0.0 0.0 0.00 0.00 0.00 77 1014.2
20260505110836 49 270 0.0 0.0 0.00 0.00 0.00 77 1014.2
20260505101301 49 270 0.0 0.0 0.00 0.00 0.00 77 1014.4
20260505100154 49 225 0.0 0.0 0.00 0.00 0.00 77 1014.4
20260505095048 49 315 0.0 0.0 0.00 0.00 0.00 77 1014.2
20260505093940 49 270 0.0 0.0 0.00 0.00 0.00 77 1014.6
20260505092833 49 270 0.0 0.0 0.00 0.00 0.00 77 1014.6
20260505091726 49 270 0.0 0.0 0.00 0.00 0.00 77 1014.7